Theta_e
351 360 363 363 363 363 364 365 364 364 363 362 361 361 360 359 361 361 361 361 361 358 355 352 351 350 350 351 352 353 355 354 353 354 354 353 353 352 354 350 350 346 350
355 360 362 362 363 363 364 364 364 363 363 362 362 361 360 360 361 361 361 361 359 356 352 350 348 346 347 349 352 352 353 354 354 353 353 353 354 352 351 350 349 348 350
357 361 360 362 362 362 363 363 363 363 362 362 361 361 360 361 361 361 361 360 357 353 350 348 345 343 343 346 349 352 353 353 352 352 350 345 346 350 347 348 349 350 349
358 361 358 361 361 361 361 361 362 362 362 362 361 360 360 361 361 360 359 357 354 350 348 346 344 342 341 340 342 344 347 350 351 351 350 349 347 349 348 346 346 349 349
358 360 359 361 361 360 360 360 360 361 361 361 361 360 360 360 359 358 357 356 353 349 347 345 344 344 342 341 342 344 343 343 342 338 340 343 344 346 349 348 345 346 349
355 359 361 361 360 360 360 359 359 360 360 360 360 359 359 359 358 357 356 355 353 350 346 345 345 344 343 341 342 342 341 340 340 338 341 340 344 348 350 350 347 347 347
354 358 360 360 360 360 359 359 359 359 359 359 359 359 359 358 357 356 356 355 353 352 349 346 344 345 344 341 339 339 339 339 336 337 338 341 346 343 351 351 351 350 348
353 358 360 360 359 359 359 358 358 358 358 358 358 358 358 357 356 356 356 354 353 352 351 348 347 346 345 343 340 339 338 339 338 336 335 338 341 344 347 354 354 352 349
353 357 359 358 359 359 358 358 357 358 357 357 357 356 356 356 356 355 355 355 354 352 351 350 348 347 345 344 342 342 340 340 338 338 336 336 337 340 350 355 355 354 351
352 353 357 358 355 354 355 358 357 357 357 357 357 356 355 355 356 355 353 354 354 353 351 351 349 348 346 345 344 343 342 342 338 336 335 337 337 340 346 353 356 355 352
348 352 355 356 356 355 353 355 357 356 357 357 356 357 353 349 351 351 351 354 355 353 352 350 350 349 348 347 346 345 344 341 339 337 338 342 340 343 345 353 356 356 353
344 349 353 356 356 355 351 354 353 353 353 352 352 354 352 353 353 351 352 352 353 353 352 352 351 350 347 345 344 344 341 342 341 339 340 341 342 345 346 353 356 357 355
343 347 351 356 357 355 352 353 353 352 354 355 355 356 356 352 353 350 350 350 352 352 349 349 348 348 348 349 347 346 344 343 344 343 342 341 343 346 348 351 353 356 356
344 347 351 354 356 356 354 354 353 352 353 352 354 357 355 352 352 351 349 349 351 350 349 349 346 350 351 351 351 350 348 347 346 345 346 342 344 345 348 351 353 356 357
343 347 350 353 355 356 355 354 354 353 353 354 355 356 354 352 350 351 351 350 349 348 347 348 349 350 350 351 350 350 350 349 349 346 346 346 345 346 348 350 354 357 356
345 347 349 351 355 355 356 357 356 356 355 355 354 354 352 354 354 352 351 349 349 348 346 347 348 349 349 350 350 352 351 351 351 350 347 348 344 344 346 349 354 357 355
345 349 349 350 353 354 354 355 355 354 354 353 351 353 355 356 355 354 350 349 348 347 347 347 348 349 349 350 352 352 350 350 349 350 350 349 347 345 345 347 354 358 357
341 346 349 349 350 351 352 353 352 352 352 353 350 352 352 356 356 353 348 347 346 345 343 344 346 348 348 349 349 348 347 348 348 349 348 348 347 346 347 347 353 354 356
332 340 347 349 349 351 353 351 352 352 351 351 349 345 351 350 352 352 349 346 346 343 343 345 347 347 346 345 344 345 346 343 346 344 345 346 348 347 349 348 349 350 352
323 330 341 347 349 350 350 350 348 348 349 349 348 347 349 348 348 349 349 347 346 344 346 347 348 348 346 346 343 342 345 345 345 346 346 345 346 349 352 353 351 349 349
322 323 330 338 347 347 345 343 344 343 345 345 348 350 349 349 348 349 347 349 351 349 349 349 352 349 345 346 342 342 341 346 346 345 345 344 346 350 353 353 352 350 350
321 325 326 332 343 346 346 347 347 347 347 347 347 348 349 349 350 351 350 350 348 349 346 346 343 342 343 345 340 340 331 336 341 345 349 348 352 352 352 352 353 353 352
317 323 326 330 338 344 348 348 343 347 345 345 346 347 348 349 350 352 352 350 349 347 335 335 344 342 338 343 345 340 332 326 333 343 344 346 352 349 350 352 354 354 354
316 318 323 328 332 339 347 345 344 342 340 343 346 348 350 350 349 350 351 344 344 342 345 342 339 343 346 341 341 343 343 339 332 329 338 341 345 347 351 349 350 354 355
316 317 321 325 329 335 343 346 345 345 345 345 347 350 349 349 349 347 347 347 345 343 345 346 347 345 345 342 341 341 342 341 340 333 328 335 340 345 346 347 348 349 353
317 318 319 321 327 329 337 342 346 346 344 336 338 340 342 344 346 348 347 347 345 343 343 343 347 347 345 344 343 344 341 334 337 336 333 335 333 338 342 346 346 346 349
Wind_Speed
10 15 13 12 10 12 13 16 18 19 20 19 19 17 18 17 15 14 14 13 12 12 12 12 11 10 10 11 11 11 11 11 11 10 8 5 6 3 7 3 4 5 5
15 16 14 13 12 13 14 16 18 20 19 19 19 18 18 17 15 14 14 13 12 12 11 11 11 10 10 10 10 10 10 10 10 10 8 7 8 6 4 1 2 5 5
19 16 17 13 12 13 14 15 17 18 19 19 18 18 18 17 16 14 12 12 12 11 11 11 10 9 9 9 9 9 9 9 8 8 7 4 6 4 2 1 2 2 3
20 17 17 15 13 12 13 14 16 16 17 18 17 17 17 16 15 14 12 12 11 11 11 10 10 10 9 9 9 8 8 8 8 7 5 4 3 6 4 3 3 3 3
18 17 16 17 14 13 13 13 14 15 15 17 17 17 16 14 13 13 12 11 11 11 10 10 9 9 9 8 7 6 6 6 7 7 3 3 3 6 7 5 5 5 5
18 17 17 16 14 13 14 13 13 13 13 14 16 17 16 15 13 12 11 10 10 10 9 9 9 8 8 8 6 6 5 5 4 4 3 2 6 5 9 7 6 5 6
16 15 17 16 15 14 14 14 15 12 11 12 14 15 15 14 13 12 11 11 10 9 9 9 8 7 6 6 5 4 3 1 4 3 3 4 4 6 10 10 9 8 8
19 17 16 15 15 15 15 15 14 14 13 11 11 13 14 15 14 13 12 11 9 9 8 8 8 6 5 4 4 3 2 2 3 4 5 4 2 6 12 11 10 10 9
15 17 16 16 16 15 14 15 15 14 14 14 13 12 13 13 14 14 12 11 10 9 8 7 7 7 6 6 5 5 4 4 5 4 6 5 4 6 11 11 11 12 10
13 15 14 14 15 14 14 14 13 14 14 13 13 11 10 9 9 11 12 11 10 9 8 7 6 6 6 6 5 5 5 6 6 5 5 4 6 9 9 12 11 11 11
11 13 13 14 14 14 14 14 15 15 13 12 11 9 8 8 9 9 7 7 9 8 7 6 6 6 6 7 7 7 7 4 5 4 4 3 8 10 9 10 11 12 12
15 16 14 15 15 14 11 14 14 14 12 11 11 11 9 9 7 6 4 6 6 6 6 6 7 6 7 4 4 6 4 4 4 4 4 6 7 10 10 9 11 13 13
13 13 16 15 15 15 13 10 8 8 9 10 14 11 9 7 6 6 4 5 5 5 5 5 5 5 5 5 4 4 4 5 3 3 4 7 8 10 11 10 12 14 13
15 16 16 16 15 15 10 10 10 10 9 9 11 12 8 6 7 6 5 5 5 4 4 4 4 4 5 6 6 6 6 5 3 3 4 7 9 11 12 12 13 13 13
14 15 17 16 16 15 14 11 10 11 10 10 9 11 8 7 6 6 5 5 5 4 4 4 4 4 5 6 6 6 8 7 6 4 4 6 9 9 10 12 10 11 13
12 14 14 17 17 16 14 13 11 10 11 10 9 8 10 8 7 6 6 6 5 5 5 4 4 4 4 5 7 7 7 8 8 7 6 6 8 9 10 12 10 12 14
13 11 16 15 16 17 17 15 11 11 11 8 7 9 10 10 9 8 7 6 6 4 7 5 5 4 4 5 7 7 7 7 7 8 7 6 6 10 11 12 13 13 14
8 13 12 13 17 17 16 13 11 11 10 11 9 10 14 13 13 11 8 8 6 5 5 4 5 4 4 4 5 6 6 7 8 9 8 7 7 6 7 13 14 13 14
12 12 14 16 18 20 16 12 12 12 11 12 11 9 13 12 12 10 9 7 8 5 5 5 6 5 4 4 4 5 6 7 9 8 10 10 9 9 6 7 13 13 14
11 10 13 12 15 15 11 11 10 11 12 12 12 11 12 10 14 9 6 8 8 7 5 4 7 6 4 4 4 5 7 7 8 9 10 8 8 10 8 9 7 8 15
10 10 12 12 14 10 11 12 11 13 12 12 12 15 16 13 11 11 8 7 7 6 6 7 6 8 3 3 3 3 4 6 7 6 6 8 6 7 5 7 6 6 6
8 9 10 13 13 13 11 10 8 10 10 10 10 12 14 13 12 10 10 10 11 10 4 4 3 4 4 4 2 1 2 2 2 4 5 4 4 3 3 5 7 7 8
10 12 12 12 13 14 15 9 5 5 4 9 10 12 14 15 14 15 16 13 11 6 10 8 12 16 7 2 5 2 1 1 4 3 6 6 7 5 5 4 7 8 8
13 9 10 12 13 13 16 14 16 13 13 12 13 12 13 15 15 15 14 11 9 7 9 12 12 10 6 6 4 5 3 2 1 4 2 7 9 8 5 6 7 8 9
11 11 10 10 12 14 15 17 14 15 12 8 9 12 12 11 12 13 12 11 10 8 9 10 8 8 6 9 7 4 4 5 5 4 4 2 7 5 5 5 7 9 8
13 12 12 12 13 13 16 19 19 19 15 12 10 10 9 7 8 10 12 10 9 9 11 11 11 10 10 8 6 6 6 4 5 4 3 3 8 5 5 6 4 8 8
Wind_Direction
163 155 157 158 148 141 144 139 142 141 140 140 142 145 139 135 137 137 139 139 138 141 137 132 128 130 129 125 124 126 129 124 119 117 108 96 124 130 106 115 160 113 109
154 158 160 157 157 149 148 142 141 140 139 141 144 145 136 138 140 144 146 146 146 148 143 139 138 135 130 130 132 134 131 129 130 130 134 129 121 95 116 158 230 99 127
153 160 163 162 165 155 147 142 137 138 141 143 145 140 141 142 146 148 149 150 155 152 151 146 140 136 134 135 138 142 140 138 140 142 149 123 105 121 133 176 259 190 149
152 160 164 164 164 159 143 143 136 140 144 145 144 142 143 144 149 150 151 158 159 159 158 150 144 143 145 147 148 153 153 157 159 166 184 125 146 154 172 190 223 254 211
158 161 163 161 162 160 148 141 140 144 148 147 145 143 144 148 151 153 158 163 165 164 162 154 150 147 147 147 149 154 158 169 179 192 170 173 223 168 187 190 199 220 246
162 162 154 154 158 160 153 146 142 146 149 148 150 148 150 155 155 156 162 165 167 166 166 161 155 153 149 149 152 159 167 181 199 180 203 215 255 167 192 190 205 223 221
161 165 161 152 156 160 158 155 148 151 154 155 156 156 156 158 158 161 167 167 171 168 170 170 162 157 152 151 158 156 154 172 258 233 261 277 289 204 200 195 205 220 214
161 166 162 155 156 162 161 159 155 157 158 164 168 168 167 166 164 169 171 173 174 172 179 179 169 166 166 168 180 178 188 247 214 275 271 268 338 221 215 204 202 212 219
165 167 167 170 164 161 163 162 160 164 168 170 177 182 178 176 173 173 176 179 175 180 185 188 181 177 186 196 205 208 204 223 248 249 253 245 188 237 220 212 208 206 220
170 174 174 174 174 175 171 164 166 169 174 178 179 186 190 186 194 188 178 184 182 183 186 193 200 197 204 220 229 233 228 224 238 238 243 248 259 252 240 224 212 210 216
179 179 182 181 180 180 179 175 168 177 182 181 183 184 186 201 201 206 215 183 187 189 190 199 220 226 231 231 242 244 250 241 235 235 248 229 268 268 257 221 217 214 216
189 188 187 187 186 184 186 182 185 182 189 194 195 192 201 203 203 228 247 229 227 208 203 207 224 241 242 264 243 230 248 259 250 242 250 255 264 268 258 242 226 219 216
195 192 193 190 186 189 192 190 188 191 187 193 195 190 198 203 209 214 221 223 230 210 239 224 225 236 255 274 273 268 271 261 263 253 255 255 264 269 263 250 244 234 221
198 197 194 191 190 190 192 198 197 197 194 198 197 197 188 200 203 221 230 220 223 223 236 257 268 271 272 275 285 289 282 274 266 278 265 246 254 259 264 263 252 238 215
221 201 198 194 192 190 191 196 203 208 201 200 203 194 200 207 209 214 225 243 250 228 220 222 263 286 290 287 284 287 289 283 275 275 280 240 252 264 272 273 256 223 215
219 212 202 203 199 195 194 196 199 198 200 200 200 209 211 204 201 210 225 223 235 247 246 222 226 263 280 282 282 276 278 285 279 272 267 275 254 265 274 276 254 221 218
217 213 207 204 205 204 203 198 203 203 197 187 178 182 212 220 209 213 225 225 216 221 255 254 241 218 254 261 276 287 285 278 278 276 264 255 261 232 253 257 247 228 219
221 209 206 206 205 207 210 202 201 200 199 190 193 193 192 213 212 196 208 218 214 198 237 239 245 230 241 265 291 295 296 287 278 272 272 265 253 254 222 237 241 234 228
235 224 215 207 209 211 210 205 202 200 204 208 211 217 220 188 222 222 187 201 192 184 213 233 233 211 211 242 261 278 278 274 278 275 264 261 255 252 246 228 230 230 235
260 241 228 218 220 214 217 208 205 204 208 210 215 221 214 215 215 204 225 187 196 179 208 185 256 208 211 224 252 259 269 268 261 265 274 271 261 253 241 243 238 225 228
277 263 238 229 223 212 210 207 206 209 206 210 216 217 214 216 210 210 202 185 166 222 173 199 238 235 200 204 259 253 232 257 279 294 286 270 263 270 278 256 241 239 231
266 270 258 232 225 214 217 220 227 207 212 215 211 214 213 213 211 211 208 206 174 152 175 177 213 299 225 198 271 298 5 348 31 338 23 321 312 320 323 298 279 246 249
253 237 237 240 228 219 218 211 201 175 178 194 208 215 216 213 207 203 202 206 205 173 185 190 243 225 243 194 211 271 207 195 327 350 18 346 336 330 345 323 285 273 253
275 270 246 241 234 224 211 209 211 214 207 208 204 207 202 202 203 208 210 206 202 196 215 218 204 215 194 222 196 210 211 162 154 312 36 336 318 300 314 315 300 271 260
270 272 270 249 237 230 217 216 210 221 225 214 208 202 205 195 199 202 209 214 225 222 221 223 212 201 194 214 193 155 200 174 211 180 298 309 284 284 333 311 306 284 274
296 288 281 263 250 233 220 220 215 214 213 207 199 200 198 186 192 212 215 215 226 231 227 226 218 205 204 213 197 181 189 191 168 146 259 290 295 293 309 282 298 300 302